Regional Weather Roundup
Issued by NWS Newport/Morehead, NC

Current Version | Previous Version | Text Only | Print | Product List | Glossary On
Versions: 1 2 3 4 5 6 7 8 9 10 11 12 13 14 15 16 17 18 19 20 21 22 23 24 25 26 27 28 29 30 31 32 33 34 35 36 37 38 39 40 41 42 43 44 45 46 47 48 49 50
000 ASUS42 KMHX 280613 RWRMHX WEATHER ROUNDUP FOR EASTERN NORTH CAROLINA NATIONAL WEATHER SERVICE NEWPORT/MOREHEAD CITY NC 200 AM EDT SAT MAY 28 2016 NOTE: "FAIR" INDICATES FEW OR NO CLOUDS BELOW 12,000 FEET WITH NO SIGNIFICANT WEATHER AND/OR OBSTRUCTIONS TO VISIBILITY NCZ015>017-031-032-045>047-102-103-280700- NORTH COAST CITY SKY/WX TMP DP RH WIND PRES REMARKS EDENTON CLEAR N/A N/A N/A CALM 30.16F ELIZABETH CITY CLEAR 65 63 93 CALM 30.16S KITTY HAWK CLEAR 64 61 89 CALM 30.15S MANTEO NOT AVBL $$ NCZ045>047-081-094-103-104-280700- CENTRAL COAST CITY SKY/WX TMP DP RH WIND PRES REMARKS FRISCO CLEAR 69 66 90 E3 30.15F $$ NCZ095-097-098-100-101-280700- SOUTHERN COAST CITY SKY/WX TMP DP RH WIND PRES REMARKS BEAUFORT PTCLDY 68 66 93 E3 30.13F CEDAR ISLAND NOT AVBL JACKSONVILLE PTCLDY 66 62 87 N6 30.13S PINEY ISLAND PTCLDY N/A N/A N/A E5 30.14S WILMINGTON PTCLDY 66 64 93 CALM 30.12F $$ NCZ011>013-027>030-043-044-078>080-089-090>093-098-280700- COASTAL PLAIN CITY SKY/WX TMP DP RH WIND PRES REMARKS AHOSKIE CLEAR 62 60 93 CALM 30.16S CLINTON CLEAR 61 61 98 CALM 30.15S ELIZABETHTOWN CLEAR 64 62 91 CALM 30.13F GOLDSBORO CLEAR 61 61 100 E1 30.13F GREENVILLE CLEAR 61 61 100 CALM 30.16S FOG HAVELOCK PTCLDY 66 62 87 CALM 30.15S KENANSVILLE PTCLDY 57 56 95 CALM 30.15S FOG KINSTON CLEAR 60 58 96 CALM 30.16S NEW BERN CLEAR 62 59 90 CALM 30.15S RICHLANDS CLOUDY 61 61 100 CALM 30.14F ROCKY MOUNT CLEAR 63 59 87 CALM 30.16S WASHINGTON CLEAR 60 59 94 CALM 30.15S WHITEVILLE CLEAR 64 62 94 CALM 30.13S $$ AMZ130-135-150-152-154-156-158-170-250-252-270-ANZ085-086-088-633-658-670-280700- MARINE OBSERVATIONS STATION/POSITION TIME TEMP WIND PRES WAVE SWELL AIR SEA DIR/SP/G HT/PER HT/PER (UTC) (F) (DEG/KT/KT) (MB) (FT/S) (FT/S) CHESAPEAKE LIGHT 0600 69 180/ 12/ 13 1021.8 64 E VA BEACH 0550 66 60 190/ 6/ 6 1021.1 3/ 8 2/ 8 DUCK 0500 65 59 150/ 9/ 10 1020.6 2 E DUCK 0511 63 N/A 2/ 7 OREGON INLET 0500 68 78 110/ 4/ 4 1021.2 13E OREGON INLT 0600 67 N/A 3/ 7 3/ 7 HATTERAS CG 0500 74 74 120/ 2/ 5 1020.5 DIAMOND BUOY 0550 76 78 120/ 12/ 14 1020.4 4/ 6 2/ 6 CAPE LOOKOUT 0600 74 100/ 7/ 7 1020.0 BEAUFORT LAB 0500 72 73 40/ 3/ 3 1019.8 30 SE NEW RVR IN 0525 74 N/A 4/ 6 27 SE WRIGHTSVLE 0508 76 74 110/ 10/ 14 1019.5 5 SE WRIGHTSVLE 0508 75 74 80/ 6/ 8 1020.6 225 S CAPE HAT 0550 76 77 90/ 17/ 19 1017.1 6/ 8 5/ 8 41 SE CHARLESTON 0550 76 76 70/ 10/ 14 1017.8 4/ 7 3/ 7 $$

USA.gov is the U.S. government's official web portal to all federal, state and local government web resources and services.